This demonstration page uses our WeatherBlox Daily Observations layout. Learn more.

Left ArrowRight Arrow

31.84235, -102.49876

Hourly Observations for August 9, 2022

Temp ( °F °C ) Dew Point ( °F °C ) Humidity (%) Winds ( mph kmh ) Pressure ( in mb ) Visibility ( mi km ) Precip ( " mm )
12:53 am 00:53 Clear 86 30 53 11.7 32 32 S 9 15 29.94 1014 10 16 0.00 0.00
1:53 am 01:53 Clear 84 28.9 54 12.2 36 36 S 12 19 29.93 1014 10 16 0.00 0.00
2:53 am 02:53 Clear 83 28.3 55 12.8 38 38 S 12 19 29.92 1013 10 16 0.00 0.00
3:53 am 03:53 Clear 81 27.2 55 12.8 41 41 S 8 13 29.92 1013 10 16 0.00 0.00
4:53 am 04:53 Clear 80 26.7 56 13.3 44 44 S 10 17 29.94 1014 10 16 0.00 0.00
5:53 am 05:53 Clear 78 25.6 58 14.4 50 50 SSW 7 11 29.95 1014 10 16 0.00 0.00
6:53 am 06:53 Clear 77 25 59 15 54 54 S 8 13 29.97 1015 10 16 0.00 0.00
7:53 am 07:53 Sunny 77 25 61 16.1 58 58 S 5 7 29.99 1016 10 16 0.00 0.00
8:53 am 08:53 Sunny 79 26.1 62 16.7 56 56 S 7 11 30.01 1016 10 16 0.00 0.00
9:53 am 09:53 Sunny 82 27.8 62 16.7 51 51 S 7 11 30.02 1017 10 16 0.00 0.00
10:53 am 10:53 Sunny 86 30 61 16.1 43 43 S 8 13 30.01 1016 10 16 0.00 0.00
11:53 am 11:53 Sunny 89 31.7 59 15 36 36 undefined N/A 30.01 1016 10 16 0.00 0.00
12:53 pm 12:53 Mostly Sunny 91 32.8 58 14.4 33 33 VRB 7 11 30.00 1016 10 16 0.00 0.00
1:53 pm 13:53 Sunny 93 33.9 58 14.4 31 31 SSE 8 13 29.98 1015 10 16 0.00 0.00
2:53 pm 14:53 Partly Cloudy 94 34.4 56 13.3 28 28 SE 10 17 29.94 1014 10 16 0.00 0.00
3:53 pm 15:53 Partly Cloudy 95 35 56 13.3 27 27 SSE 10 17 29.91 1013 10 16 0.00 0.00
4:53 pm 16:53 Sunny 94 34.4 55 12.8 27 27 VRB 7 11 29.88 1012 10 16 0.00 0.00
5:53 pm 17:53 Sunny 96 35.6 55 12.8 25 25 SE 7 11 29.87 1012 10 16 0.00 0.00
6:53 pm 18:53 Sunny 95 35 54 12.2 25 25 ESE 12 19 29.87 1012 10 16 0.00 0.00
7:53 pm 19:53 Mostly Sunny 94 34.4 53 11.7 25 25 ESE 14 22 29.87 1012 10 16 0.00 0.00
8:53 pm 20:53 Clear 92 33.3 53 11.7 27 27 ESE 8 13 29.89 1012 10 16 0.00 0.00
9:53 pm 21:53 Mostly Clear 84 28.9 59 15 43 43 E 20 31 29.95 1014 10 16 0.00 0.00
10:53 pm 22:53 Mostly Clear 82 27.8 60 15.6 47 47 ESE 20 31 29.96 1015 10 16 0.00 0.00
11:53 pm 23:53 Mostly Cloudy 83 28.3 60 15.6 46 46 ESE 12 19 29.97 1015 10 16 0.00 0.00

Powered by AerisWeather